TimeCST,TemperatureF,Dew PointF,Humidity,Sea Level PressureIn,VisibilityMPH,Wind Direction,Wind SpeedMPH,Gust SpeedMPH,PrecipitationIn,Events,Conditions,WindDirDegrees,DateUTC
12:53 AM,17.1,9.0,71,30.16,10.0,NNE,8.1,-,N/A,,Clear,30,2013-01-13 06:53:00
1:53 AM,17.1,9.0,71,30.19,10.0,NNE,9.2,-,N/A,,Mostly Cloudy,20,2013-01-13 07:53:00
2:53 AM,17.1,9.0,71,30.21,10.0,North,5.8,-,N/A,,Overcast,10,2013-01-13 08:53:00
3:53 AM,17.1,8.1,68,30.21,10.0,North,5.8,-,N/A,,Overcast,10,2013-01-13 09:53:00
4:53 AM,17.1,8.1,68,30.22,10.0,North,5.8,-,N/A,,Overcast,10,2013-01-13 10:53:00
5:53 AM,17.1,9.0,71,30.23,10.0,NNW,6.9,-,N/A,,Overcast,340,2013-01-13 11:53:00
6:53 AM,16.0,7.0,68,30.25,10.0,North,6.9,-,N/A,,Overcast,360,2013-01-13 12:53:00
7:53 AM,15.1,8.1,74,30.28,10.0,NNW,8.1,-,N/A,,Overcast,340,2013-01-13 13:53:00
8:53 AM,16.0,8.1,71,30.30,10.0,North,8.1,-,N/A,,Partly Cloudy,360,2013-01-13 14:53:00
9:53 AM,18.0,7.0,62,30.30,10.0,North,5.8,-,N/A,,Clear,10,2013-01-13 15:53:00
10:53 AM,19.9,7.0,57,30.30,10.0,NNW,5.8,-,N/A,,Clear,340,2013-01-13 16:53:00
11:53 AM,23.0,8.1,53,30.28,10.0,Variable,3.5,-,N/A,,Clear,0,2013-01-13 17:53:00
12:53 PM,24.1,8.1,51,30.23,10.0,NNE,4.6,-,N/A,,Clear,20,2013-01-13 18:53:00
1:53 PM,27.0,10.0,49,30.21,10.0,Variable,4.6,-,N/A,,Clear,0,2013-01-13 19:53:00
2:53 PM,27.0,10.0,49,30.21,10.0,Calm,Calm,-,N/A,,Clear,0,2013-01-13 20:53:00
3:53 PM,28.9,9.0,43,30.22,10.0,Variable,3.5,-,N/A,,Mostly Cloudy,0,2013-01-13 21:53:00
4:53 PM,27.0,9.0,47,30.22,10.0,East,4.6,-,N/A,,Scattered Clouds,80,2013-01-13 22:53:00
5:53 PM,25.0,10.0,53,30.24,10.0,East,4.6,-,N/A,,Clear,100,2013-01-13 23:53:00
6:53 PM,24.1,10.0,55,30.25,10.0,East,5.8,-,N/A,,Clear,100,2013-01-14 00:53:00
7:53 PM,23.0,10.0,58,30.27,10.0,ESE,6.9,-,N/A,,Clear,110,2013-01-14 01:53:00
8:53 PM,21.0,10.0,63,30.28,10.0,SE,4.6,-,N/A,,Clear,130,2013-01-14 02:53:00
9:53 PM,19.9,12.0,71,30.28,10.0,South,3.5,-,N/A,,Clear,170,2013-01-14 03:53:00
10:53 PM,19.9,12.9,74,30.30,10.0,South,3.5,-,N/A,,Clear,190,2013-01-14 04:53:00
11:53 PM,21.0,12.9,71,30.30,10.0,Calm,Calm,-,N/A,,Clear,0,2013-01-14 05:53:00